Newton, KS

5:31 AM CDT on August 19, 2017 (GMT -0500)
Newton City County

Weather History for KEWK - November, 2012

Change the Weather History Date:

Friday, November 30, 2012

  Actual Average Record
Temperature  
Mean Temperature 50 °F -  
Max Temperature 62 °F 46 °F 66 °F (2003)
Min Temperature 37 °F 29 °F 14 °F (2006)
Degree Days  
Heating Degree Days 16    
Moisture  
Dew Point 40 °F    
Average Humidity 73    
Maximum Humidity 93    
Minimum Humidity 52    
Precipitation  
Precipitation 0.00 in - - ()
Sea Level Pressure  
Sea Level Pressure 30.03 in    
Wind  
Wind Speed 7 mph (South)    
Max Wind Speed 14 mph    
Max Gust Speed -    
Visibility 9 miles    
Events      
Averages and records for this station are not official NWS values.
T = Trace of Precipitation, MM = Missing Value Source: NWS Daily Summary

Daily Weather History Graph

Daily Weather History Graph

Search for Another Location

Airport or City:

Trip Planner

Search our weather history database for the weather conditions in past years. The results will help you decide how hot, cold, wet, or windy it might be!

Date:

Astronomy

Nov. 30, 2012 Rise Set
Actual Time 7:26 AM CST 5:09 PM CST
Civil Twilight 6:57 AM CST 5:38 PM CST
Nautical Twilight 6:24 AM CST 6:11 PM CST
Astronomical Twilight 5:52 AM CST 6:43 PM CST
Moon 7:05 PM CST (11/30) 8:58 AM CST (11/30)
Length of Visible Light 10h 41m
Length of Day
9h 43m
Waning Gibbous, 96% of the Moon is Illuminated
Nov 30
Waning Gibbous
Dec 6
Last Quarter
Dec 13
New
Dec 19
First Quarter
Dec 28
Full

Hourly Weather History & Observations

Time (CST) Temp. Windchill Dew Point Humidity Pressure Visibility Wind Dir Wind Speed Gust Speed Precip Events Conditions
12:15 AM 46.4 °F 41.9 °F 39.2 °F 76% 30.04 in 10.0 mi SSW 9.2 mph - N/A   Clear
12:35 AM 44.6 °F 40.2 °F 37.4 °F 76% 30.04 in 10.0 mi SSW 8.1 mph - N/A   Clear
12:55 AM 44.6 °F 40.7 °F 37.4 °F 76% 30.04 in 10.0 mi SSW 6.9 mph - N/A   Clear
1:15 AM 42.8 °F 38.0 °F 37.4 °F 81% 30.04 in 10.0 mi SSW 8.1 mph - N/A   Clear
1:35 AM 42.8 °F 38.0 °F 37.4 °F 81% 30.04 in 10.0 mi SSW 8.1 mph - N/A   Clear
1:55 AM 44.6 °F 39.7 °F 37.4 °F 76% 30.04 in 10.0 mi SSW 9.2 mph - N/A   Clear
2:15 AM 42.8 °F 38.6 °F 35.6 °F 76% 30.04 in 10.0 mi SSW 6.9 mph - N/A   Clear
2:35 AM 42.8 °F 40.1 °F 35.6 °F 76% 30.05 in 10.0 mi WSW 4.6 mph - N/A   Clear
2:55 AM 42.8 °F 41.1 °F 35.6 °F 76% 30.05 in 10.0 mi West 3.5 mph - N/A   Clear
3:15 AM 42.8 °F 40.1 °F 35.6 °F 76% 30.05 in 10.0 mi WSW 4.6 mph - N/A   Clear
3:35 AM 42.8 °F 41.1 °F 35.6 °F 76% 30.05 in 10.0 mi SSW 3.5 mph - N/A   Clear
3:55 AM 41.0 °F 37.1 °F 33.8 °F 76% 30.05 in 10.0 mi SSW 5.8 mph - N/A   Clear
4:15 AM 37.4 °F 31.4 °F 32.0 °F 81% 30.04 in 10.0 mi SSW 8.1 mph - N/A   Clear
4:35 AM 37.4 °F 30.8 °F 30.2 °F 75% 30.04 in 10.0 mi South 9.2 mph - N/A   Clear
4:55 AM 37.4 °F 30.8 °F 32.0 °F 81% 30.04 in 10.0 mi SSW 9.2 mph - N/A   Clear
5:15 AM 37.4 °F 32.1 °F 32.0 °F 81% 30.04 in 10.0 mi SSW 6.9 mph - N/A   Clear
5:35 AM 37.4 °F 33.8 °F 32.0 °F 81% 30.04 in 10.0 mi SW 4.6 mph - N/A   Clear
5:55 AM 39.2 °F 33.6 °F 33.8 °F 81% 30.04 in 10.0 mi SW 8.1 mph - N/A   Clear
6:15 AM 39.2 °F 34.2 °F 33.8 °F 81% 30.05 in 10.0 mi SSW 6.9 mph - N/A   Clear
6:35 AM 37.4 °F - 32.0 °F 81% 30.06 in 10.0 mi Calm Calm - N/A   Clear
6:55 AM 39.2 °F - 33.8 °F 81% 30.07 in 10.0 mi Calm Calm - N/A   Clear
7:15 AM 37.4 °F 34.9 °F 32.0 °F 81% 30.07 in 10.0 mi South 3.5 mph - N/A   Clear
7:35 AM 39.2 °F - 33.8 °F 81% 30.08 in 10.0 mi Calm Calm - N/A   Clear
7:55 AM 39.2 °F - 33.8 °F 81% 30.08 in 10.0 mi Calm Calm - N/A   Clear
8:15 AM 39.2 °F - 32.0 °F 75% 30.09 in 10.0 mi Calm Calm - N/A   Clear
8:35 AM 41.0 °F - 33.8 °F 76% 30.09 in 10.0 mi Calm Calm - N/A   Clear
8:55 AM 42.8 °F - 35.6 °F 76% 30.09 in 10.0 mi Calm Calm - N/A   Clear
9:15 AM 44.6 °F - 35.6 °F 71% 30.09 in 10.0 mi Calm Calm - N/A   Clear
9:35 AM 46.4 °F - 35.6 °F 66% 30.09 in 10.0 mi Calm Calm - N/A   Clear
9:55 AM 48.2 °F - 37.4 °F 66% 30.10 in 10.0 mi SSW 5.8 mph - N/A   Clear
10:15 AM 50.0 °F - 39.2 °F 66% 30.10 in 10.0 mi SSW 6.9 mph - N/A   Clear
10:35 AM 51.8 °F - 39.2 °F 62% 30.09 in 10.0 mi SW 8.1 mph - N/A   Clear
10:55 AM 51.8 °F - 39.2 °F 62% 30.09 in 10.0 mi South 6.9 mph - N/A   Clear
11:15 AM 53.6 °F - 39.2 °F 58% 30.08 in 10.0 mi SSW 4.6 mph - N/A   Clear
11:35 AM 53.6 °F - 39.2 °F 58% 30.07 in 10.0 mi SSW 4.6 mph - N/A   Clear
11:55 AM 55.4 °F - 41.0 °F 58% 30.06 in 10.0 mi Calm Calm - N/A   Clear
12:15 PM 57.2 °F - 42.8 °F 59% 30.05 in 10.0 mi SSW 3.5 mph - N/A   Clear
12:35 PM 57.2 °F - 42.8 °F 59% 30.04 in 10.0 mi Calm Calm - N/A   Clear
12:55 PM 60.8 °F - 42.8 °F 52% 30.03 in 10.0 mi East 3.5 mph - N/A   Clear
1:15 PM 60.8 °F - 42.8 °F 52% 30.03 in 10.0 mi SSW 3.5 mph - N/A   Clear
1:35 PM 60.8 °F - 42.8 °F 52% 30.03 in 10.0 mi SSE 4.6 mph - N/A   Clear
1:55 PM 60.8 °F - 42.8 °F 52% 30.02 in 10.0 mi SE 8.1 mph - N/A   Clear
2:15 PM 60.8 °F - 44.6 °F 55% 30.01 in 10.0 mi SSE 9.2 mph - N/A   Clear
2:35 PM 60.8 °F - 44.6 °F 55% 30.01 in 10.0 mi SSE 9.2 mph - N/A   Clear
2:55 PM 60.8 °F - 44.6 °F 55% 30.00 in 10.0 mi SE 9.2 mph - N/A   Clear
3:15 PM 62.6 °F - 44.6 °F 52% 29.99 in 10.0 mi SSE 11.5 mph - N/A   Clear
3:35 PM 60.8 °F - 44.6 °F 55% 29.99 in 10.0 mi SE 12.7 mph - N/A   Clear
3:55 PM 60.8 °F - 44.6 °F 55% 29.98 in 10.0 mi SE 11.5 mph - N/A   Clear
4:15 PM 60.8 °F - 44.6 °F 55% 29.99 in 10.0 mi SSE 9.2 mph - N/A   Clear
4:35 PM 59.0 °F - 44.6 °F 59% 29.98 in 10.0 mi SE 6.9 mph - N/A   Clear
4:55 PM 55.4 °F - 44.6 °F 67% 29.98 in 10.0 mi SE 6.9 mph - N/A   Clear
5:15 PM 53.6 °F - 42.8 °F 67% 29.97 in 10.0 mi SSE 6.9 mph - N/A   Clear
5:35 PM 51.8 °F - 42.8 °F 71% 29.98 in 10.0 mi SSE 5.8 mph - N/A   Clear
5:55 PM 51.8 °F - 42.8 °F 71% 29.98 in 10.0 mi SSE 5.8 mph - N/A   Clear
6:15 PM 53.6 °F - 44.6 °F 72% 29.99 in 10.0 mi SSE 5.8 mph - N/A   Clear
6:35 PM 51.8 °F - 44.6 °F 76% 30.00 in 10.0 mi SSE 5.8 mph - N/A   Clear
7:15 PM 51.8 °F - 44.6 °F 76% 29.99 in 10.0 mi South 10.4 mph - N/A   Clear
7:35 PM 51.8 °F - 44.6 °F 76% 30.00 in 10.0 mi South 13.8 mph - N/A   Clear
7:55 PM 51.8 °F - 46.4 °F 82% 30.00 in 10.0 mi South 13.8 mph - N/A   Clear
8:15 PM 51.8 °F - 46.4 °F 82% 30.00 in 8.0 mi South 9.2 mph - N/A   Clear
8:35 PM 48.2 °F - 44.6 °F 87% 29.99 in 6.0 mi SSE 9.2 mph - N/A   Clear
8:55 PM 48.2 °F - 44.6 °F 87% 29.98 in 5.0 mi SSE 8.1 mph - N/A   Clear
9:15 PM 48.2 °F - 44.6 °F 87% 29.98 in 4.0 mi SSE 9.2 mph - N/A   Clear
9:35 PM 46.4 °F 41.9 °F 44.6 °F 93% 29.98 in 3.0 mi SSE 9.2 mph - N/A   Clear
9:55 PM 46.4 °F 41.9 °F 42.8 °F 87% 29.97 in 3.0 mi SSE 9.2 mph - N/A   Clear
10:15 PM 46.4 °F 41.9 °F 42.8 °F 87% 29.97 in 2.5 mi SE 9.2 mph - N/A   Clear
10:35 PM 46.4 °F 41.9 °F 42.8 °F 87% 29.97 in 2.0 mi SSE 9.2 mph - N/A   Clear
11:15 PM 46.4 °F 41.5 °F 44.6 °F 93% 29.95 in 0.5 mi SSE 10.4 mph - N/A   Overcast
11:35 PM 48.2 °F - 44.6 °F 87% 29.94 in 0.8 mi SSE 10.4 mph - N/A   Overcast
11:55 PM 48.2 °F - 46.4 °F 93% 29.94 in 1.2 mi SSE 11.5 mph - N/A   Overcast